Abilene Dyess, TX

12:05 AM CST on November 19, 2019 (GMT -0600)
Dyess Air Force Base

Weather History for KDYS - July, 2019

Change the Weather History Date:

Sunday, July 21, 2019

  Actual Average Record
Temperature  
Mean Temperature 87 °F -  
Max Temperature 99 °F 95 °F 105 °F (2018)
Min Temperature 75 °F 74 °F 71 °F (1997)
Cooling Degree Days 22    
Growing Degree Days 37 (Base 50)    
Moisture  
Dew Point 56 °F    
Average Humidity 37    
Maximum Humidity 67    
Minimum Humidity 18    
Precipitation  
Precipitation 0.00 in - - ()
Sea Level Pressure  
Sea Level Pressure 29.77 in    
Wind  
Wind Speed 15 mph (SE)    
Max Wind Speed 22 mph    
Max Gust Speed 26 mph    
Visibility 10 miles    
Events      
Averages and records for this station are not official NWS values.
T = Trace of Precipitation, MM = Missing Value Source: NWS Daily Summary

Daily Weather History Graph

Daily Weather History Graph

Search for Another Location

Airport or City:

Astronomy

Jul. 21, 2019 Rise Set
Actual Time 6:46 AM CDT 8:44 PM CDT
Civil Twilight 6:19 AM CDT 9:12 PM CDT
Nautical Twilight 5:45 AM CDT 9:45 PM CDT
Astronomical Twilight 5:10 AM CDT 10:20 PM CDT
Moon 11:54 PM CDT (7/21) 10:56 AM CDT (7/21)
Length of Visible Light 14h 53m
Length of Day
13h 58m
Waning Gibbous, 80% of the Moon is Illuminated
Jul 21
Waning Gibbous
Jul 24
Last Quarter
Jul 31
New
Aug 7
First Quarter
Aug 15
Full

Hourly Weather History & Observations

Time (CDT) Temp. Heat Index Dew Point Humidity Pressure Visibility Wind Dir Wind Speed Gust Speed Precip Events Conditions
12:56 AM 83.7 °F 83.4 °F 58.8 °F 43% 29.73 in 10.0 mi SSE 12.7 mph - N/A   Clear
1:56 AM 83.3 °F 83.4 °F 59.7 °F 45% 29.73 in 10.0 mi SSE 19.6 mph - N/A   Clear
2:56 AM 81.1 °F 82.0 °F 61.2 °F 51% 29.73 in 10.0 mi SSE 19.6 mph 25.3 mph N/A   Clear
3:56 AM 79.5 °F - 62.4 °F 56% 29.74 in 10.0 mi SSE 17.3 mph - N/A   Clear
4:56 AM 78.1 °F - 63.0 °F 60% 29.75 in 10.0 mi SSE 18.4 mph 25.3 mph N/A   Clear
5:56 AM 76.3 °F - 63.7 °F 65% 29.76 in 10.0 mi SSE 15.0 mph - N/A   Clear
6:56 AM 75.0 °F - 63.3 °F 67% 29.78 in 10.0 mi SSE 11.5 mph - N/A   Clear
8:56 AM 81.5 °F 82.1 °F 60.4 °F 49% 29.80 in 10.0 mi SSE 21.9 mph 26.5 mph N/A   Clear
9:56 AM 85.6 °F 84.8 °F 57.7 °F 39% 29.83 in 10.0 mi South 11.5 mph - N/A   Clear
10:56 AM 88.5 °F 86.9 °F 55.8 °F 33% 29.83 in 10.0 mi SSE 15.0 mph 23.0 mph N/A   Clear
11:56 AM 91.2 °F 89.1 °F 54.5 °F 29% 29.82 in 10.0 mi South 16.1 mph 23.0 mph N/A   Clear
12:56 PM 94.1 °F 92.2 °F 54.9 °F 27% 29.80 in 10.0 mi SSE 18.4 mph 21.9 mph N/A   Partly Cloudy
1:56 PM 96.3 °F 94.4 °F 54.7 °F 25% 29.79 in 10.0 mi SSE 12.7 mph 19.6 mph N/A   Overcast
2:49 PM 96.8 °F - 51.8 °F 22% 29.77 in 10.0 mi SE 17.3 mph 24.2 mph N/A   Scattered Clouds
2:56 PM 98.1 °F - 52.7 °F 22% 29.77 in 10.0 mi SE 15.0 mph 21.9 mph N/A   Scattered Clouds
3:56 PM 98.8 °F - 50.7 °F 20% 29.75 in 10.0 mi SE 10.4 mph 24.2 mph N/A   Partly Cloudy
4:56 PM 99.5 °F - 48.4 °F 18% 29.75 in 10.0 mi ESE 16.1 mph - N/A   Clear
5:56 PM 99.0 °F - 48.0 °F 18% 29.74 in 10.0 mi SSE 13.8 mph - N/A   Clear
6:56 PM 97.7 °F - 49.8 °F 20% 29.74 in 10.0 mi SE 12.7 mph - N/A   Clear
7:56 PM 95.5 °F - 52.9 °F 24% 29.76 in 10.0 mi ESE 6.9 mph - N/A   Clear
8:56 PM 89.8 °F 87.7 °F 54.1 °F 30% 29.77 in 10.0 mi East 5.8 mph - N/A   Clear
9:56 PM 87.6 °F 86.5 °F 57.4 °F 36% 29.79 in 10.0 mi East 9.2 mph - N/A   Clear
10:56 PM 84.9 °F 84.2 °F 57.9 °F 40% 29.81 in 10.0 mi East 8.1 mph - N/A   Clear
11:56 PM 81.5 °F 81.7 °F 58.6 °F 46% 29.82 in 10.0 mi ESE 4.6 mph - N/A   Clear